Miscellaneous Local Product
Issued by NWS Hastings, NE

Home | Current Version | Previous Version | Graphics & Text | Print | Product List | Glossary On
Versions: 1 2 3 4 5 6 7 8 9 10 11 12 13 14 15 16 17 18 19 20 21 22 23 24 25 26 27 28 29 30 31 32 33 34 35 36 37 38 39 40 41 42 43 44 45 46 47 48 49 50
000
AXUS43 KGID 290602
MISGRI

GID CWA HOURLY WEATHER ROUNDUP
NATIONAL WEATHER SERVICE HASTINGS NE
100 AM CDT SUN MAR 29 2015

NOTE: "FAIR" INDICATES FEW OR NO CLOUDS BELOW 12,000 FEET WITH NO
SIGNIFICANT WEATHER AND/OR OBSTRUCTIONS TO VISIBILITY.

...SOUTH CENTRAL NEBRASKA...

CITY           SKY/WX    TMP DP  RH WIND       PRES   REMARKS
GRAND ISLAND   CLEAR     49  36  61 S23G29    29.83R
HASTINGS       CLEAR     50  37  61 S13G25    29.83R
KEARNEY        PTCLDY    52  37  58 S13       29.85R
ORD            PTCLDY    51  35  54 S18G29    29.74F
YORK           MOCLDY    45  36  70 S18       29.83F
AURORA         CLEAR     46  35  65 S18G24    29.82S
LEXINGTON      CLOUDY    58  40  50 S17       29.81F
HOLDREGE       PTCLDY    51  37  57 S13       29.80S
HEBRON         CLEAR     46  35  64 S16G23    29.87F

...NEBRASKA PANHANDLE...

CITY           SKY/WX    TMP DP  RH WIND       PRES   REMARKS
CHADRON        CLEAR     54  29  38 W16       29.93R
ALLIANCE       CLEAR     55  36  48 N18       29.92R
SCOTTSBLUFF    CLEAR     54  31  41 NW15      29.97R
SIDNEY         MOCLDY    61  28  28 NW25G33   29.93R

...WESTERN AND NORTH CENTRAL NEBRASKA...

CITY           SKY/WX    TMP DP  RH WIND       PRES   REMARKS
VALENTINE      PTCLDY    58  39  49 N23G30    29.82R
AINSWORTH      MOCLDY    62  40  44 NW16G30   29.80R
ONEILL         CLOUDY    53  37  53 S21G31    29.72F
BROKEN BOW     MOCLDY    58  39  49 S20G28    29.71F
IMPERIAL       CLOUDY    74  26  16 W18G25    29.83R
NORTH PLATTE   MOCLDY    60  38  43 SE8G17    29.78R
MCCOOK         PTCLDY    64  39  39 SW14G22   29.84R

...EASTERN NEBRASKA...

CITY           SKY/WX    TMP DP  RH WIND       PRES   REMARKS
NORFOLK        PTCLDY    46  34  62 S20G29    29.79S
SO SIOUX CITY  CLEAR     43  30  60 SE17G26   29.82F
TEKAMAH        CLEAR     43  31  62 SE28G41   29.86F
COLUMBUS       PTCLDY    45  30  57 S16       29.84F
ALBION         CLOUDY    47  33  59 S18G25    29.79S
OMAHA EPPLEY   CLEAR     43  32  65 S24G31    29.90F
OFFUTT AFB     PTCLDY    41  32  69 SE16      29.90F
MILLARD        CLEAR     43  32  64 SE17      29.91F
LINCOLN        CLEAR     44  33  65 S20       29.89F
NEBRASKA CITY  CLEAR     42  30  61 S21G26    29.93F
BEATRICE       CLEAR     43  33  67 S15G24    29.89F
FALLS CITY     CLEAR     41  31  67 SE16      29.97F

...NORTHERN KANSAS...

CITY           SKY/WX    TMP DP  RH WIND       PRES   REMARKS
GOODLAND       PTCLDY    59  34  39 S20       29.86S
HILL CITY      CLEAR     59  42  53 S13G20    29.81F
NORTON         CLEAR     55  37  50 S10G17    29.81R
PHILLIPSBURG   CLEAR     61  43  51 S9G17     29.83S
SMITH CENTER   CLEAR     48  37  66 SE9       29.86S
BELOIT         CLEAR     48  39  71 SE12      29.86S
HAYS           CLEAR     57  39  51 S21G28    29.85F
RUSSELL        CLEAR     56  43  61 S17G24    29.84F
CONCORDIA      CLEAR     48  39  71 SE18G26   29.86F
SALINA         CLEAR     51  40  65 SE16      29.90F
TOPEKA         CLEAR     42  33  70 SE15      30.01F



USA.gov is the U.S. government's official web portal to all federal, state and local government web resources and services.